Date,TemperatureHighF,TemperatureAvgF,TemperatureLowF,DewpointHighF,DewpointAvgF,DewpointLowF,HumidityHigh,HumidityAvg,HumidityLow,PressureMaxIn,PressureMinIn,WindSpeedMaxMPH,WindSpeedAvgMPH,GustSpeedMaxMPH,PrecipitationSumIn
2013-8-1,77.7,70.1,65.5,69.4,63.8,59.6,94,81,62,29.85,29.68,10,2,18,0.33
2013-8-2,77.5,68.5,61.3,69.3,60.9,54.3,95,79,48,29.81,29.73,8,1,19,0.31
2013-8-3,79.5,69.0,61.7,63.4,58.7,50.2,96,72,38,29.85,29.72,12,2,17,0.01
2013-8-4,75.4,65.1,57.7,60.0,54.6,47.8,91,70,48,29.98,29.85,13,4,20,0.00
2013-8-5,82.4,65.8,52.9,58.5,53.4,46.9,93,68,34,30.02,29.92,7,0,10,0.00
2013-8-6,87.6,69.7,55.8,60.9,56.5,52.6,93,66,35,29.96,29.87,5,0,8,0.00
2013-8-7,83.8,74.5,66.0,69.2,64.6,59.8,84,72,55,29.89,29.77,7,2,12,0.00
2013-8-8,90.0,75.8,68.2,75.0,69.5,64.2,96,82,55,29.87,29.80,7,1,12,0.99
2013-8-9,81.0,72.0,64.9,70.9,66.7,59.9,96,84,53,29.85,29.76,8,1,12,0.50
2013-8-10,76.3,67.8,60.4,64.4,56.7,49.7,92,70,43,30.00,29.85,11,3,16,0.00
2013-8-11,80.4,66.9,55.9,59.4,56.2,50.8,96,72,40,30.04,29.94,6,1,10,0.00
2013-8-12,79.7,70.3,62.8,64.6,60.4,56.7,86,72,53,29.96,29.76,6,0,12,0.00
2013-8-13,73.6,66.8,58.5,66.7,59.2,47.3,95,77,55,29.78,29.65,15,4,24,0.37
2013-8-14,70.9,60.8,53.6,55.9,50.8,45.8,94,71,47,29.99,29.76,13,4,20,0.01
2013-8-15,74.8,63.4,53.4,56.0,51.8,48.6,87,68,42,30.04,29.98,10,1,16,0.00
2013-8-16,82.8,66.8,56.8,61.5,56.4,52.1,91,71,42,30.12,30.02,7,0,12,0.00
2013-8-17,88.0,69.5,54.1,61.9,56.7,48.3,95,68,30,30.21,30.11,5,0,8,0.00
2013-8-18,86.0,71.6,59.2,66.1,59.5,54.5,89,68,40,30.16,30.02,3,0,6,0.00
2013-8-19,85.5,72.3,62.8,66.5,61.4,55.6,91,71,43,30.04,29.94,7,1,12,0.00
2013-8-20,84.4,73.0,63.1,65.1,61.1,58.5,87,68,43,30.05,29.97,5,1,12,0.00
2013-8-21,88.5,75.7,64.9,66.4,62.3,59.3,84,65,42,30.08,29.93,6,1,10,0.00
2013-8-22,84.6,75.0,68.2,71.7,66.5,61.0,90,75,61,29.95,29.83,10,2,16,0.02
2013-8-23,83.8,68.5,56.5,61.2,57.0,51.0,94,70,41,30.12,29.91,9,1,13,0.00
2013-8-24,85.1,66.8,51.6,61.0,53.3,48.2,96,67,32,30.26,30.12,8,1,10,0.00
2013-8-25,85.8,70.0,54.5,60.2,55.1,51.3,91,63,36,30.25,30.03,7,1,12,0.00
2013-8-26,80.6,71.9,68.5,70.9,65.5,58.5,95,81,63,30.08,29.83,12,2,20,0.28
2013-8-27,86.0,76.2,69.4,73.6,70.9,67.8,96,85,63,29.86,29.78,8,1,11,0.00
2013-8-28,88.7,76.8,68.2,76.0,71.0,65.8,95,83,57,29.87,29.76,8,1,13,0.03
2013-8-29,92.1,75.5,64.2,73.5,67.1,62.8,97,78,45,29.96,29.87,7,1,12,0.00
2013-8-30,86.4,74.5,63.5,69.5,66.5,61.6,96,78,54,29.93,29.66,6,1,10,0.00
2013-8-31,85.5,76.4,70.3,72.5,69.3,66.8,92,79,58,29.77,29.62,9,1,16,0.00